Time,TemperatureF,DewpointF,PressureIn,WindDirection,WindDirectionDegrees,WindSpeedMPH,WindSpeedGustMPH,Humidity,HourlyPrecipIn,Conditions,Clouds,dailyrainin,SoftwareType,DateUTC
2013-03-29 00:03:00,39.0,30.0,30.22,ENE,60,0.0,1.0,71,0.00,,,0.00,,2013-03-29 05:03:00,
2013-03-29 00:12:00,39.0,30.0,30.22,ENE,60,0.0,1.0,71,0.00,,,0.00,,2013-03-29 05:12:00,
2013-03-29 00:23:00,39.0,30.0,30.22,ENE,60,0.0,0.0,70,0.00,,,0.00,,2013-03-29 05:23:00,
2013-03-29 00:32:00,39.0,30.0,30.22,ENE,60,0.0,0.0,71,0.00,,,0.00,,2013-03-29 05:32:00,
2013-03-29 00:43:00,39.0,30.0,30.22,ENE,60,0.0,0.0,71,0.00,,,0.00,,2013-03-29 05:43:00,
2013-03-29 00:52:00,39.0,30.0,30.22,ENE,60,0.0,0.0,71,0.00,,,0.00,,2013-03-29 05:52:00,
2013-03-29 01:02:00,39.0,31.0,30.23,East,98,0.0,4.0,72,0.00,,,0.00,,2013-03-29 06:02:00,
2013-03-29 01:12:00,39.0,31.0,30.23,East,98,0.0,4.0,72,0.00,,,0.00,,2013-03-29 06:12:00,
2013-03-29 01:23:00,38.0,30.0,30.23,ESE,108,0.0,2.0,74,0.00,,,0.00,,2013-03-29 06:23:00,
2013-03-29 01:32:00,38.0,31.0,30.23,ESE,108,0.0,0.0,75,0.00,,,0.00,,2013-03-29 06:32:00,
2013-03-29 01:42:00,38.0,31.0,30.23,ESE,108,0.0,0.0,75,0.00,,,0.00,,2013-03-29 06:42:00,
2013-03-29 01:52:00,38.0,31.0,30.23,ESE,108,0.0,0.0,76,0.00,,,0.00,,2013-03-29 06:52:00,
2013-03-29 02:03:00,37.0,30.0,30.23,ESE,108,0.0,0.0,77,0.00,,,0.00,,2013-03-29 07:03:00,
2013-03-29 02:12:00,37.0,30.0,30.23,ESE,108,0.0,0.0,77,0.00,,,0.00,,2013-03-29 07:12:00,
2013-03-29 02:22:00,37.0,30.0,30.23,ESE,108,0.0,1.0,77,0.00,,,0.00,,2013-03-29 07:22:00,
2013-03-29 02:32:00,37.0,30.0,30.22,ESE,107,0.0,1.0,76,0.00,,,0.00,,2013-03-29 07:32:00,
2013-03-29 02:42:00,37.0,30.0,30.22,ESE,107,0.0,1.0,76,0.00,,,0.00,,2013-03-29 07:42:00,
2013-03-29 02:52:00,37.0,30.0,30.22,ESE,107,0.0,1.0,77,0.00,,,0.00,,2013-03-29 07:52:00,
2013-03-29 03:02:00,36.0,30.0,30.21,ESE,107,0.0,1.0,78,0.00,,,0.00,,2013-03-29 08:02:00,
2013-03-29 03:12:00,36.0,30.0,30.21,ESE,107,0.0,1.0,78,0.00,,,0.00,,2013-03-29 08:12:00,
2013-03-29 03:22:00,36.0,30.0,30.21,ESE,107,0.0,0.0,78,0.00,,,0.00,,2013-03-29 08:22:00,
2013-03-29 03:42:00,35.0,29.0,30.21,ESE,107,0.0,1.0,80,0.00,,,0.00,,2013-03-29 08:42:00,
2013-03-29 03:53:00,34.0,29.0,30.21,ESE,107,0.0,2.0,82,0.00,,,0.00,,2013-03-29 08:53:00,
2013-03-29 04:02:00,34.0,29.0,30.21,East,81,2.0,2.0,81,0.00,,,0.00,,2013-03-29 09:02:00,
2013-03-29 04:13:00,34.0,29.0,30.21,East,81,2.0,2.0,81,0.00,,,0.00,,2013-03-29 09:13:00,
2013-03-29 04:22:00,34.0,28.0,30.21,ENE,68,1.0,2.0,80,0.00,,,0.00,,2013-03-29 09:22:00,
2013-03-29 04:32:00,34.0,28.0,30.20,ENE,68,0.0,1.0,80,0.00,,,0.00,,2013-03-29 09:32:00,
2013-03-29 04:42:00,34.0,28.0,30.20,ENE,68,0.0,1.0,80,0.00,,,0.00,,2013-03-29 09:42:00,
2013-03-29 04:52:00,34.0,28.0,30.20,ENE,68,0.0,0.0,80,0.00,,,0.00,,2013-03-29 09:52:00,
2013-03-29 05:02:00,34.0,28.0,30.20,ENE,68,0.0,0.0,79,0.00,,,0.00,,2013-03-29 10:02:00,
2013-03-29 05:12:00,34.0,28.0,30.20,ENE,68,0.0,0.0,79,0.00,,,0.00,,2013-03-29 10:12:00,
2013-03-29 05:22:00,34.0,28.0,30.20,ENE,68,0.0,0.0,80,0.00,,,0.00,,2013-03-29 10:22:00,
2013-03-29 05:33:00,33.0,28.0,30.19,ENE,68,0.0,0.0,80,0.00,,,0.00,,2013-03-29 10:33:00,
2013-03-29 05:42:00,33.0,28.0,30.19,ENE,68,0.0,0.0,80,0.00,,,0.00,,2013-03-29 10:42:00,
2013-03-29 05:53:00,34.0,29.0,30.20,ENE,68,0.0,0.0,81,0.00,,,0.00,,2013-03-29 10:53:00,
2013-03-29 06:03:00,34.0,28.0,30.20,ENE,68,0.0,1.0,79,0.00,,,0.00,,2013-03-29 11:03:00,
2013-03-29 06:12:00,34.0,28.0,30.20,ENE,68,0.0,1.0,79,0.00,,,0.00,,2013-03-29 11:12:00,
2013-03-29 06:23:00,34.0,28.0,30.20,ENE,68,1.0,2.0,79,0.00,,,0.00,,2013-03-29 11:23:00,
2013-03-29 06:32:00,34.0,28.0,30.20,ENE,68,0.0,0.0,79,0.00,,,0.00,,2013-03-29 11:32:00,
2013-03-29 06:42:00,34.0,28.0,30.20,ENE,68,0.0,0.0,79,0.00,,,0.00,,2013-03-29 11:42:00,
2013-03-29 06:52:00,34.0,28.0,30.20,ENE,68,0.0,0.0,79,0.00,,,0.00,,2013-03-29 11:52:00,
2013-03-29 07:03:00,33.0,28.0,30.21,ENE,68,0.0,0.0,80,0.00,,,0.00,,2013-03-29 12:03:00,
2013-03-29 07:12:00,33.0,28.0,30.21,ENE,68,0.0,0.0,80,0.00,,,0.00,,2013-03-29 12:12:00,
2013-03-29 07:22:00,33.0,27.0,30.21,ENE,68,0.0,0.0,79,0.00,,,0.00,,2013-03-29 12:22:00,
2013-03-29 07:32:00,32.0,27.0,30.21,ENE,68,0.0,0.0,80,0.00,,,0.00,,2013-03-29 12:32:00,
2013-03-29 07:42:00,32.0,27.0,30.21,ENE,68,0.0,0.0,80,0.00,,,0.00,,2013-03-29 12:42:00,
2013-03-29 07:53:00,32.0,27.0,30.21,ENE,68,0.0,0.0,81,0.00,,,0.00,,2013-03-29 12:53:00,
2013-03-29 08:03:00,34.0,28.0,30.21,ENE,68,0.0,1.0,77,0.00,,,0.00,,2013-03-29 13:03:00,
2013-03-29 08:12:00,34.0,28.0,30.21,ENE,68,0.0,1.0,77,0.00,,,0.00,,2013-03-29 13:12:00,
2013-03-29 08:22:00,36.0,29.0,30.22,ENE,68,0.0,1.0,75,0.00,,,0.00,,2013-03-29 13:22:00,
2013-03-29 08:32:00,37.0,29.0,30.22,ENE,68,0.0,1.0,72,0.00,,,0.00,,2013-03-29 13:32:00,
2013-03-29 08:42:00,37.0,29.0,30.22,ENE,68,0.0,1.0,72,0.00,,,0.00,,2013-03-29 13:42:00,
2013-03-29 08:53:00,39.0,30.0,30.23,ENE,69,0.0,2.0,70,0.00,,,0.00,,2013-03-29 13:53:00,
2013-03-29 09:02:00,39.0,31.0,30.23,ENE,69,1.0,3.0,72,0.00,,,0.00,,2013-03-29 14:02:00,
2013-03-29 09:12:00,39.0,31.0,30.23,ENE,69,1.0,3.0,72,0.00,,,0.00,,2013-03-29 14:12:00,
2013-03-29 09:22:00,40.0,31.0,30.23,ENE,70,0.0,3.0,70,0.00,,,0.00,,2013-03-29 14:22:00,
2013-03-29 09:32:00,42.0,31.0,30.23,ESE,109,2.0,5.0,66,0.00,,,0.00,,2013-03-29 14:32:00,
2013-03-29 09:42:00,42.0,31.0,30.23,ESE,109,2.0,5.0,66,0.00,,,0.00,,2013-03-29 14:42:00,
2013-03-29 09:53:00,44.0,32.0,30.24,East,91,1.0,4.0,63,0.00,,,0.00,,2013-03-29 14:53:00,
2013-03-29 10:02:00,44.0,31.0,30.24,ESE,120,1.0,5.0,60,0.00,,,0.00,,2013-03-29 15:02:00,
2013-03-29 10:12:00,44.0,31.0,30.24,ESE,120,1.0,5.0,60,0.00,,,0.00,,2013-03-29 15:12:00,
2013-03-29 10:22:00,46.0,32.0,30.24,SE,129,7.0,7.0,57,0.00,,,0.00,,2013-03-29 15:22:00,
2013-03-29 10:33:00,47.0,33.0,30.23,ESE,115,0.0,7.0,57,0.00,,,0.00,,2013-03-29 15:33:00,
2013-03-29 10:43:00,47.0,33.0,30.23,ESE,115,0.0,7.0,57,0.00,,,0.00,,2013-03-29 15:43:00,
2013-03-29 10:53:00,47.0,33.0,30.23,ESE,115,0.0,7.0,57,0.00,,,0.00,,2013-03-29 15:53:00,
2013-03-29 11:03:00,47.0,32.0,30.24,ENE,61,0.0,5.0,56,0.00,,,0.00,,2013-03-29 16:03:00,
2013-03-29 11:13:00,47.0,32.0,30.24,ENE,61,0.0,5.0,56,0.00,,,0.00,,2013-03-29 16:13:00,
2013-03-29 11:23:00,49.0,34.0,30.24,ESE,121,0.0,5.0,55,0.00,,,0.00,,2013-03-29 16:23:00,
2013-03-29 11:32:00,49.0,33.0,30.24,ENE,58,0.0,7.0,54,0.00,,,0.00,,2013-03-29 16:32:00,
2013-03-29 11:42:00,49.0,33.0,30.24,ENE,58,0.0,7.0,54,0.00,,,0.00,,2013-03-29 16:42:00,
2013-03-29 11:52:00,51.0,34.0,30.23,East,84,5.0,7.0,51,0.00,,,0.00,,2013-03-29 16:52:00,
2013-03-29 12:03:00,50.0,33.0,30.23,SSE,160,0.0,8.0,52,0.00,,,0.00,,2013-03-29 17:03:00,
2013-03-29 12:12:00,50.0,33.0,30.23,SSE,160,0.0,8.0,52,0.00,,,0.00,,2013-03-29 17:12:00,
2013-03-29 12:22:00,52.0,33.0,30.23,SE,124,6.0,7.0,49,0.00,,,0.00,,2013-03-29 17:22:00,
2013-03-29 12:33:00,51.0,33.0,30.22,SE,144,1.0,4.0,49,0.00,,,0.00,,2013-03-29 17:33:00,
2013-03-29 12:42:00,51.0,33.0,30.22,SE,144,1.0,4.0,49,0.00,,,0.00,,2013-03-29 17:42:00,
2013-03-29 12:53:00,53.0,35.0,30.22,SE,128,4.0,7.0,51,0.00,,,0.00,,2013-03-29 17:53:00,
2013-03-29 13:02:00,52.0,34.0,30.21,SW,215,3.0,5.0,50,0.00,,,0.00,,2013-03-29 18:02:00,
2013-03-29 13:12:00,52.0,34.0,30.21,SW,215,3.0,5.0,50,0.00,,,0.00,,2013-03-29 18:12:00,
2013-03-29 13:22:00,52.0,33.0,30.21,East,82,1.0,5.0,49,0.00,,,0.00,,2013-03-29 18:22:00,
2013-03-29 13:32:00,53.0,34.0,30.20,NNE,25,0.0,7.0,49,0.00,,,0.00,,2013-03-29 18:32:00,
2013-03-29 13:42:00,53.0,34.0,30.20,NNE,25,0.0,7.0,49,0.00,,,0.00,,2013-03-29 18:42:00,
2013-03-29 13:52:00,53.0,33.0,30.20,ENE,78,1.0,5.0,47,0.00,,,0.00,,2013-03-29 18:52:00,
2013-03-29 14:02:00,55.0,35.0,30.19,SW,223,3.0,5.0,46,0.00,,,0.00,,2013-03-29 19:02:00,
2013-03-29 14:12:00,56.0,35.0,30.19,NE,50,2.0,4.0,45,0.00,,,0.00,,2013-03-29 19:12:00,
2013-03-29 14:23:00,56.0,35.0,30.19,NE,50,2.0,4.0,45,0.00,,,0.00,,2013-03-29 19:23:00,
2013-03-29 14:32:00,57.0,34.0,30.18,WNW,284,2.0,6.0,42,0.00,,,0.00,,2013-03-29 19:32:00,
2013-03-29 14:42:00,57.0,34.0,30.18,WNW,284,2.0,6.0,42,0.00,,,0.00,,2013-03-29 19:42:00,
2013-03-29 14:53:00,57.0,33.0,30.18,WNW,297,0.0,6.0,40,0.00,,,0.00,,2013-03-29 19:53:00,
2013-03-29 15:02:00,56.0,33.0,30.17,WNW,292,2.0,6.0,42,0.00,,,0.00,,2013-03-29 20:02:00,
2013-03-29 15:12:00,56.0,33.0,30.17,WNW,292,2.0,6.0,42,0.00,,,0.00,,2013-03-29 20:12:00,
2013-03-29 15:22:00,57.0,35.0,30.17,WNW,288,1.0,6.0,43,0.00,,,0.00,,2013-03-29 20:22:00,
2013-03-29 15:33:00,55.0,32.0,30.16,NNE,22,1.0,9.0,42,0.00,,,0.00,,2013-03-29 20:33:00,
2013-03-29 15:42:00,55.0,32.0,30.16,NNE,22,1.0,9.0,42,0.00,,,0.00,,2013-03-29 20:42:00,
2013-03-29 15:52:00,55.0,32.0,30.16,South,173,1.0,4.0,42,0.00,,,0.00,,2013-03-29 20:52:00,
2013-03-29 16:02:00,56.0,32.0,30.16,NNE,24,5.0,7.0,40,0.00,,,0.00,,2013-03-29 21:02:00,
2013-03-29 16:12:00,56.0,32.0,30.16,NNE,24,5.0,7.0,40,0.00,,,0.00,,2013-03-29 21:12:00,
2013-03-29 16:22:00,55.0,31.0,30.15,ENE,59,3.0,6.0,39,0.00,,,0.00,,2013-03-29 21:22:00,
2013-03-29 16:33:00,56.0,33.0,30.15,WNW,286,4.0,4.0,41,0.00,,,0.00,,2013-03-29 21:33:00,
2013-03-29 16:42:00,56.0,33.0,30.15,WNW,286,4.0,4.0,41,0.00,,,0.00,,2013-03-29 21:42:00,
2013-03-29 16:53:00,57.0,34.0,30.14,NW,315,2.0,3.0,41,0.00,,,0.00,,2013-03-29 21:53:00,
2013-03-29 17:03:00,56.0,34.0,30.14,North,355,0.0,4.0,43,0.00,,,0.00,,2013-03-29 22:03:00,
2013-03-29 17:12:00,56.0,34.0,30.14,North,355,0.0,4.0,43,0.00,,,0.00,,2013-03-29 22:12:00,
2013-03-29 17:22:00,56.0,33.0,30.14,WNW,294,0.0,4.0,41,0.00,,,0.00,,2013-03-29 22:22:00,
2013-03-29 17:33:00,56.0,31.0,30.14,North,5,3.0,4.0,39,0.00,,,0.00,,2013-03-29 22:33:00,
2013-03-29 17:42:00,56.0,31.0,30.14,North,5,3.0,4.0,39,0.00,,,0.00,,2013-03-29 22:42:00,
2013-03-29 17:53:00,55.0,33.0,30.14,NNE,21,4.0,4.0,43,0.00,,,0.00,,2013-03-29 22:53:00,
2013-03-29 18:02:00,54.0,33.0,30.14,NNE,25,0.0,4.0,44,0.00,,,0.00,,2013-03-29 23:02:00,
2013-03-29 18:12:00,54.0,33.0,30.14,NNE,25,0.0,4.0,44,0.00,,,0.00,,2013-03-29 23:12:00,
2013-03-29 18:22:00,54.0,33.0,30.13,ENE,74,2.0,5.0,45,0.00,,,0.00,,2013-03-29 23:22:00,
2013-03-29 18:32:00,54.0,33.0,30.13,NNE,20,0.0,4.0,44,0.00,,,0.00,,2013-03-29 23:32:00,
2013-03-29 18:42:00,54.0,33.0,30.13,NNE,20,0.0,4.0,44,0.00,,,0.00,,2013-03-29 23:42:00,
2013-03-29 18:52:00,53.0,33.0,30.14,NNE,12,1.0,4.0,46,0.00,,,0.00,,2013-03-29 23:52:00,
2013-03-29 19:03:00,52.0,32.0,30.14,NNE,25,2.0,3.0,46,0.00,,,0.00,,2013-03-30 00:03:00,
2013-03-29 19:12:00,52.0,32.0,30.14,NNE,25,2.0,3.0,46,0.00,,,0.00,,2013-03-30 00:12:00,
2013-03-29 19:22:00,52.0,33.0,30.14,NNE,23,0.0,3.0,49,0.00,,,0.00,,2013-03-30 00:22:00,
2013-03-29 19:32:00,50.0,34.0,30.13,NNE,23,0.0,1.0,53,0.00,,,0.00,,2013-03-30 00:32:00,
2013-03-29 19:42:00,50.0,34.0,30.13,NNE,23,0.0,1.0,53,0.00,,,0.00,,2013-03-30 00:42:00,
2013-03-29 19:53:00,49.0,34.0,30.13,NNE,23,0.0,0.0,57,0.00,,,0.00,,2013-03-30 00:53:00,
2013-03-29 20:02:00,48.0,35.0,30.13,NNE,23,0.0,0.0,61,0.00,,,0.00,,2013-03-30 01:02:00,
2013-03-29 20:12:00,48.0,35.0,30.13,NNE,23,0.0,0.0,61,0.00,,,0.00,,2013-03-30 01:12:00,
2013-03-29 20:22:00,47.0,35.0,30.13,NNE,23,0.0,0.0,63,0.00,,,0.00,,2013-03-30 01:22:00,
2013-03-29 20:32:00,46.0,34.0,30.13,NNE,24,0.0,2.0,62,0.00,,,0.00,,2013-03-30 01:32:00,
2013-03-29 20:42:00,46.0,34.0,30.13,NNE,24,0.0,2.0,62,0.00,,,0.00,,2013-03-30 01:42:00,
2013-03-29 20:53:00,46.0,34.0,30.13,NNE,24,0.0,1.0,63,0.00,,,0.00,,2013-03-30 01:53:00,
2013-03-29 21:02:00,46.0,34.0,30.14,NNE,24,0.0,0.0,62,0.00,,,0.00,,2013-03-30 02:02:00,
2013-03-29 21:12:00,46.0,34.0,30.14,NNE,24,0.0,0.0,62,0.00,,,0.00,,2013-03-30 02:12:00,
2013-03-29 21:22:00,45.0,33.0,30.14,NNE,24,0.0,0.0,62,0.00,,,0.00,,2013-03-30 02:22:00,
2013-03-29 21:32:00,45.0,33.0,30.14,NNE,24,0.0,2.0,63,0.00,,,0.00,,2013-03-30 02:32:00,
2013-03-29 21:42:00,45.0,33.0,30.14,NNE,24,0.0,2.0,63,0.00,,,0.00,,2013-03-30 02:42:00,
2013-03-29 21:53:00,44.0,33.0,30.14,NNE,24,0.0,1.0,65,0.00,,,0.00,,2013-03-30 02:53:00,
2013-03-29 22:02:00,43.0,33.0,30.15,NNE,24,0.0,1.0,67,0.00,,,0.00,,2013-03-30 03:02:00,
2013-03-29 22:12:00,42.0,31.0,30.15,NNE,24,0.0,0.0,66,0.00,,,0.00,,2013-03-30 03:12:00,
2013-03-29 22:22:00,42.0,31.0,30.15,NNE,24,0.0,0.0,66,0.00,,,0.00,,2013-03-30 03:22:00,
2013-03-29 22:33:00,42.0,31.0,30.15,ENE,64,0.0,2.0,65,0.00,,,0.00,,2013-03-30 03:33:00,
2013-03-29 22:43:00,42.0,31.0,30.15,ENE,64,0.0,2.0,65,0.00,,,0.00,,2013-03-30 03:43:00,
2013-03-29 22:53:00,42.0,31.0,30.15,ENE,64,0.0,0.0,65,0.00,,,0.00,,2013-03-30 03:53:00,
2013-03-29 23:02:00,41.0,31.0,30.15,ENE,65,0.0,2.0,66,0.00,,,0.00,,2013-03-30 04:02:00,
2013-03-29 23:12:00,41.0,31.0,30.15,ENE,65,0.0,2.0,66,0.00,,,0.00,,2013-03-30 04:12:00,
2013-03-29 23:23:00,41.0,30.0,30.15,ENE,76,0.0,4.0,65,0.00,,,0.00,,2013-03-30 04:23:00,
2013-03-29 23:32:00,40.0,30.0,30.15,ENE,76,0.0,0.0,66,0.00,,,0.00,,2013-03-30 04:32:00,
2013-03-29 23:42:00,40.0,30.0,30.15,ENE,76,0.0,0.0,66,0.00,,,0.00,,2013-03-30 04:42:00,
2013-03-29 23:53:00,39.0,30.0,30.14,ENE,76,2.0,2.0,69,0.00,,,0.00,,2013-03-30 04:53:00,